Regional Weather Roundup
Issued by NWS Goodland, KS

Home | Current Version | Previous Version | Text Only | Print | Product List | Glossary On
Versions: 1 2 3 4 5 6 7 8 9 10 11 12 13 14 15 16 17 18 19 20 21 22 23 24 25 26 27 28 29 30 31 32 33 34 35 36 37 38 39 40 41 42 43 44 45 46 47 48 49 50
000
ASUS43 KGLD 211259
RWRGLD

GOODLAND FORECAST AREA HOURLY WEATHER ROUNDUP
NATIONAL WEATHER SERVICE GOODLAND KS
700 AM MDT THU SEP 21 2017

...OFFICIAL OBSERVATIONS...

CITY           SKY/WX    TMP DP  RH WIND       PRES   REMARKS
GOODLAND KS    CLEAR     52  42  69 S13       29.78S
HILL CITY KS   CLEAR     48  44  86 CALM      29.81S
IMPERIAL NEB   CLEAR     48  44  86 SE8       29.78S
MCCOOK NEB     CLEAR     48  46  93 NE5       29.80R
AKRON CO       CLOUDY    47  35  63 CALM      29.77S
BURLINGTON CO  CLEAR     53  41  63 S13       29.80S
LIMON CO       CLOUDY    36  33  89 N6        29.85S
$$

...UNOFFICIAL OBSERVATIONS...

CITY           SKY/WX    TMP DP  RH WIND       PRES   REMARKS
LENORA KS        N/A     51  32  48 MISG        N/A
NORTON KS      CLEAR     54  48  82 E3        29.79S
SHARON SPRINGS   N/A     50  42  73 S12         N/A
TRENTON NEB      N/A     50  32  50 SE7         N/A
KIT CARSON CO    N/A     47  37  69 CALM        N/A
YUMA CO        FAIR      37  36  93 E3        29.77R
$$




USA.gov is the U.S. government's official web portal to all federal, state and local government web resources and services.